WetterOnline ( http://www.wetteronline.de )

Wetter aktuell Schoonhoven

Aktuelles Wetter: De Bilt (4m)

6-stündlich | Neueste Meldungen
Ortszeit Temperatur Wetter
Mo, 21.08. 8:00 13.4° C bedeckt
Mo, 21.08. 2:00 12.4° C bewölkt
So, 20.08. 20:00 16.7° C bedeckt
So, 20.08. 14:00 19.0° C bedeckt
Ortszeit Temperatur Wetter
Mo, 21.08. 13:00 19.1° C bedeckt
Mo, 21.08. 12:00 18.2° C bedeckt
Mo, 21.08. 11:00 18.6° C wolkig
Mo, 21.08. 10:00 17.9° C bewölkt
Mo, 21.08. 9:00 14.7° C wolkig
Mo, 21.08. 8:00 13.4° C bedeckt
Ortszeit Relative Feuchte Sichtweite
Mo, 21.08. 8:00 90% 22 km
Mo, 21.08. 2:00 95% 30 km
So, 20.08. 20:00 64% 35 km
So, 20.08. 14:00 60% 35 km
Ortszeit Relative Feuchte Sichtweite
Mo, 21.08. 13:00 60% 35 km
Mo, 21.08. 12:00 70% 30 km
Mo, 21.08. 11:00 76% 26 km
Mo, 21.08. 10:00 83% 23 km
Mo, 21.08. 9:00 87% 22 km
Mo, 21.08. 8:00 90% 22 km
Ortszeit Niederschlagsmenge Niederschlagsart
Mo, 21.08. 8:00 0.0 l/m2 in 12 Std. -
Mo, 21.08. 2:00 0.0 l/m2 in 6 Std. -
So, 20.08. 20:00 0.1 l/m2 in 12 Std. -
So, 20.08. 14:00 0.1 l/m2 in 6 Std. -
Ortszeit Niederschlagsmenge Niederschlagsart
Mo, 21.08. 13:00 0.0 l/m2 in 1 Std. -
Mo, 21.08. 12:00 0.0 l/m2 in 1 Std. -
Mo, 21.08. 11:00 0.0 l/m2 in 1 Std. -
Mo, 21.08. 10:00 0.0 l/m2 in 1 Std. -
Mo, 21.08. 9:00 0.0 l/m2 in 1 Std. -
Mo, 21.08. 8:00 0.0 l/m2 in 1 Std. -
Ortszeit Stärke Spitze Richtung
km/h Bft. km/h Grad Sektor
Mo, 21.08. 8:00 7 2 11 140° SO
Mo, 21.08. 2:00 4 1 11 220° SW
So, 20.08. 20:00 7 2 40 280° W
So, 20.08. 14:00 14 3 40 270° W
Ortszeit Stärke Spitze Richtung
km/h Bft. km/h Grad Sektor
Mo, 21.08. 13:00 11 2 22 210° SW
Mo, 21.08. 12:00 11 2 18 200° S
Mo, 21.08. 11:00 14 3 22 210° SW
Mo, 21.08. 10:00 7 2 14 210° SW
Mo, 21.08. 9:00 4 1 7 160° S
Mo, 21.08. 8:00 7 2 11 140° SO
Ortszeit Untergrenze Bedeckung Gattung
total tief tief mittel hoch
Mo, 21.08. 8:00 1500 m 8/8 8/8 - - -
Mo, 21.08. 2:00 1500 m 8/8 7/8 - - -
So, 20.08. 20:00 6000 m 8/8 8/8 - - -
So, 20.08. 14:00 1020 m 8/8 8/8 - - -
Ortszeit Bedeckungsgrad in Achtel und Wolkenuntergrenze
Mo, 21.08. 13:00 2(1020m) 5(1170m) 8(1320m)
Mo, 21.08. 12:00 5(690m) 7(780m) 8(1050m)
Mo, 21.08. 11:00 6
Mo, 21.08. 10:00 1(570m) 3(630m) 7(1800m)
Mo, 21.08. 9:00 6(1500m)
Mo, 21.08. 8:00 8(1500m)
Ortszeit Luftdruck NN (hPa) Tendenz (hPa in 3 Std.)
Mo, 21.08. 8:00 1023 - 0,1
Mo, 21.08. 2:00 1024 - 0,2
So, 20.08. 20:00 1024 0,0
So, 20.08. 14:00 1023 + 0,8
Ortszeit Luftdruck NN (hPa) Tendenz (hPa in 3 Std.)
Mo, 21.08. 13:00 1023 - 0,4
Mo, 21.08. 12:00 1024 + 0,1
Mo, 21.08. 11:00 1024 + 0,5
Mo, 21.08. 10:00 1024 + 0,7
Mo, 21.08. 9:00 1024 + 0,7
Mo, 21.08. 8:00 1023 - 0,1
Ortszeit Schneehöhe (cm)
Mo, 21.08. 8:00 -
Mo, 21.08. 2:00 -
So, 20.08. 20:00 -
So, 20.08. 14:00 -
Ortszeit Schneehöhe (cm)
Mo, 21.08. 13:00 -
Mo, 21.08. 12:00 -
Mo, 21.08. 11:00 -
Mo, 21.08. 10:00 -
Mo, 21.08. 9:00 -
Mo, 21.08. 8:00 -
Link zu dieser Seite / Seite empfehlen

Das Wetter in ...